Regional Weather Roundup
Issued by NWS

Home | Current Version | Previous Version | Graphics & Text | Print | Product List | Glossary Off
Versions: 1 2 3 4 5 6 7 8 9 10 11 12 13 14 15 16 17 18 19 20 21 22 23 24 25 26 27 28 29 30 31 32 33 34 35 36 37 38 39 40 41 42 43 44 45 46 47 48 49 50

000
ASUS43 KDMX 190007
RWRIA

WEATHER ROUNDUP FOR IOWA
NATIONAL WEATHER SERVICE DES MOINES IA
700 PM CDT SAT APR 18 2015

NOTE: "FAIR" INDICATES FEW OR NO CLOUDS BELOW 12,000 FEET WITH NO
SIGNIFICANT WEATHER AND/OR OBSTRUCTIONS TO VISIBILITY.

* - THESE STATIONS ARE NOT NWS STATIONS...THUS NOT UNDER NWS
QUALITY CONTROL.  THEY ALSO DO NOT REPORT WEATHER SUCH
AS PRECIPITATION OR FOG.

IAZ001>003-012>014-020>022-031>034-043>046-190100-
   NORTHWEST IOWA

CITY           SKY/WX    TMP DP  RH WIND       PRES   REMARKS
CARROLL *      CLOUDY    57  57 100 CALM      29.84F
CHEROKEE *     CLOUDY    58  58  97 SE7       29.83F
DENISON *      MOSUNNY   59  59 100 E9        29.81F
LE MARS *      MOSUNNY   61  57  88 SE10      29.83F
ORANGE CITY *  PTSUNNY  N/A N/A N/A SE6       29.83F
SHELDON *      PTSUNNY   57  57 100 SE7       29.82F
SIOUX CITY     CLOUDY    62  57  83 SE9       29.82S
6HR MIN TEMP:  59; 6HR MAX TEMP:  63; 6HR PCP:  0.09;

SPENCER        CLOUDY    59  56  89 E5        29.83F
6HR MIN TEMP:  57; 6HR MAX TEMP:  63; 6HR PCP:  0.45;

STORM LAKE *   SUNNY     57  57 100 SE7       29.84F
$$

IAZ055>058-069>071-079>083-090>094-190100-
   SOUTHWEST IOWA

CITY           SKY/WX    TMP DP  RH WIND       PRES   REMARKS
ATLANTIC *     CLOUDY    59  59 100 NE8       29.83F
AUDUBON *      DRIZZLE   59  55  88 E6        29.85F
CLARINDA *     MOSUNNY   59  57  94 E13       29.84F
COUNCIL BLFS * PTSUNNY   61  61 100 SE7G13    29.83R
CRESTON *      PTSUNNY   61  61 100 NE6       29.86F
HARLAN  *      CLOUDY    59  59 100 E5        29.86F
LAMONI         CLOUDY    63  59  87 NE5       29.85F
6HR MIN TEMP:  62; 6HR MAX TEMP:  71; 6HR PCP:  0.32;

RED OAK *      CLOUDY    61  61 100 E8        29.84R
SHENANDOAH *   CLOUDY    61  59  94 E7        29.85R
$$

IAZ047>049-059>061-072>074-084-190100-
   CENTRAL IOWA

CITY           SKY/WX    TMP DP  RH WIND       PRES   REMARKS
AMES           LGT RAIN  60  58  92 NW7       29.86S FOG
6HR MIN TEMP:  60; 6HR MAX TEMP:  72; 6HR PCP:  0.26;

ANKENY *       MOCLDY    63  61  94 SE6       29.88R
CHARITON *     LGT RAIN  61  61 100 CALM      29.86F
DES MOINES     LGT RAIN  63  60  90 SW6       29.88R
6HR MIN TEMP:  62; 6HR MAX TEMP:  76; 6HR PCP:  0.15;

GRINNELL*      RAIN      61  55  82 SW12      29.91R
KNOXVILLE *    LGT RAIN  59  57  94 S5        29.87F
MARSHALLTOWN   TSTM      61  59  93 SW8       29.87R
6HR MIN TEMP:  59; 6HR MAX TEMP:  75; 6HR PCP:  0.82;

PELLA *        RAIN      59  59 100 S6        29.90F
PERRY *        RAIN      59  57  94 CALM      29.86S
$$

IAZ004>006-015-016-023>025-035-036-190100-
   NORTH CENTRAL IOWA

CITY           SKY/WX    TMP DP  RH WIND       PRES   REMARKS
ALGONA *       CLOUDY    57  57 100 N5        29.86F
CLARION *      PTSUNNY   59  59 100 N6        29.86F
ESTHERVILLE    LGT RAIN  56  55  97 E3        29.86F
6HR MIN TEMP:  55; 6HR MAX TEMP:  65; 6HR PCP:  0.27;

FORT DODGE *   CLOUDY    57  54  88 NW5       29.86S
MASON CITY     TSTM      58  32  37 E7        29.93R
6HR MIN TEMP:  58; 6HR MAX TEMP:  76; 6HR PCP:  0.73;

FOREST CITY *  DRIZZLE   55  55 100 E3        29.89F
IOWA FALLS *   HVY RAIN  59  57  94 NW8       29.88F
$$

IAZ007>011-017>019-026>030-037>042-050>054-066-190100-
   NORTHEAST IOWA

CITY           SKY/WX    TMP DP  RH WIND       PRES   REMARKS
CEDAR RAPIDS   CLOUDY    67  55  65 E12       29.87S
6HR MIN TEMP:  66; 6HR MAX TEMP:  79; 6HR PCP:  0.05;

CHARLES CITY * LGT RAIN  61  57  88 W12       29.91S
CLINTON *      MOCLDY    72  46  40 E16       29.93S
DECORAH *      PTCLDY    68  41  37 E14       29.91F
DUBUQUE        CLOUDY    69  38  32 E14       29.93F
6HR MIN TEMP:  69; 6HR MAX TEMP:  74;

MONTICELLO *   LGT RAIN  63  52  67 E15G22    29.89F
OELWEIN *      MOCLDY    70  41  35 E20       29.89S
WATERLOO       CLOUDY    69  47  45 E16       29.86R
6HR MIN TEMP:  69; 6HR MAX TEMP:  78;

$$

IAZ064-065-067-068-078-190100-
   EAST CENTRAL IOWA

CITY           SKY/WX    TMP DP  RH WIND       PRES   REMARKS
DAVENPORT      MOCLDY    70  52  52 E12       29.90F
6HR MIN TEMP:  70; 6HR MAX TEMP:  80; 6HR PCP: TRACE;

IOWA CITY      LGT RAIN  71  55  56 E8        29.88S
6HR MIN TEMP:  71; 6HR MAX TEMP:  77; 6HR PCP: TRACE;

MT. PLEASANT * CLOUDY    73  51  45 SE9       29.86S
MUSCATINE *    CLOUDY    77  50  38 SE12      29.86F
QUAD CITIES    MOCLDY    73  51  46 E16       29.88F
6HR MIN TEMP:  71; 6HR MAX TEMP:  81; 6HR PCP:  0.01;

$$

IAZ062-063-075>077-085>089-095>099-190100-
   SOUTHEAST IOWA

CITY           SKY/WX    TMP DP  RH WIND       PRES   REMARKS
BURLINGTON     MOCLDY    75  52  44 S12       29.86S
6HR MIN TEMP:  75; 6HR MAX TEMP:  79;

FAIRFIELD *    HVY RAIN  63  55  77 SW8G17    29.90R
FORT MADISON * PTCLDY    75  52  43 SE9       29.87S
KEOKUK *       MOCLDY    70  57  64 SW18      29.86S
OSKALOOSA *    CLOUDY    60  56  88 W10G20    29.88F
CENTERVILLE *    N/A     57  57 100 NW5       29.87F
OTTUMWA        RAIN      59  58  96 SW9       29.86F FOG
6HR MIN TEMP:  59; 6HR MAX TEMP:  79; 6HR PCP:  0.07;

WASHINGTON *   CLEAR     75  54  46 S8        29.86S
$$

ABBREVIATIONS USED IN REMARKS
   TC - TEMPERATURES IN CELSIUS
  WCI - WIND CHILL INDEX
   HX - HEAT INDEX
  VSB - VISIBILITY
$$




USA.gov is the U.S. government's official web portal to all federal, state and local government web resources and services.